ecutool.com alexa rank chart, ecutool.com alexa rank daily changes

ecutool.com alexa rank chart, ecutool.com alexa rank daily changes

ecutool.com
Actual rank:
42 449

RANK HISTORY

Date Rank Diff
2017/11/20 42 449 -836
2017/11/19 43 285 -729
2017/11/18 44 014 -1 306
2017/11/17 45 320 -433
2017/11/16 45 753 +861
2017/11/15 44 892 +169
2017/11/14 44 723 +989
2017/11/13 43 734 +222
2017/11/12 43 512 +98
2017/11/11 43 414 +912
2017/11/10 42 502 +35
2017/11/09 42 467 -818
2017/11/08 43 285 +803
2017/11/07 42 482 +160
2017/11/06 42 322 -604
2017/11/05 42 926 +167
2017/11/04 42 759 -611
2017/11/03 43 370 -1 666
2017/11/02 45 036 -306
2017/11/01 45 342 -1 537
2017/10/31 46 879 +1 690
2017/10/30 45 189 +1 028
2017/10/29 44 161 -197
2017/10/28 44 358 -965
2017/10/27 45 323 +384
2017/10/26 44 939 -13
2017/10/25 44 952 +1 289
2017/10/24 43 663 +2 809
2017/10/23 40 854 +602
2017/10/22 40 252 +695
2017/10/21 39 557 -1
2017/10/20 39 558 +525
2017/10/19 39 033 -778
2017/10/18 39 811 +1 773
2017/10/17 38 038 +893
2017/10/16 37 145 +203
2017/10/14 36 942 -376
2017/10/13 37 318 +55
2017/10/12 37 263 -247
2017/10/11 37 510 -931
2017/10/10 38 441 +799
2017/10/09 37 642 +217
2017/10/08 37 425 +272
2017/10/07 37 153 +803
2017/10/06 36 350 +185
2017/10/05 36 165 -152
2017/10/04 36 317 +879
2017/10/03 35 438 +1 198
2017/10/02 34 240 -111
2017/10/01 34 351 -823
2017/09/30 35 174 -973
2017/09/29 36 147 -317
2017/09/28 36 464 +904
2017/09/27 35 560 +530
2017/09/26 35 030 +328
2017/09/25 34 702 -463
2017/09/24 35 165 -953
2017/09/23 36 118 -1 134
2017/09/22 37 252

WIDGET FOR YOUR SITE

DOMAINS WITH THE NEAREST RANK

Domain Rank
glgresearch.com 42 444
kousokubus.net 42 445
signup.free.fr 42 446
aluguetemporada.com.br 42 447
ridewithgps.com 42 448
ecutool.com 42 449
chemteam.info 42 450
kingdee.com 42 451
mon-ip.com 42 452
nissan.ru 42 453
huihoo.com 42 454

DOMAINS WITH THE NEAREST RANK BY TLD .com

Domain Rank
profitableventure.com 42 438
hanjutv.com 42 439
pacopacomama.com 42 443
glgresearch.com 42 444
ridewithgps.com 42 448
ecutool.com 42 449
kingdee.com 42 451
mon-ip.com 42 452
huihoo.com 42 454
virtualdrumming.com 42 455
metapack.com 42 456